sat.trackr.live / text

‹ back to catalog

NUSAT-54 (BRANCA MARQU*)

NORAD 68442 · 2026-067AC

PAYLOAD ACTIVE UNKNOWN

§ Identity

Operator
Country
ARGN
Launch date
2026-03-30
Launch site
AFWTR
Launch vehicle
Mass (kg)
RCS (m²)

External: N2YO · Heavens-Above · Gunter

§ Orbital elements

Epoch: 2026-05-25T03:56:55.964832Z

Period
94.89 min
Inclination
97.4526°
Eccentricity
0.0005713
Mean motion
15.17471974 rev/d
Perigee alt
509.5 km
Apogee alt
517.4 km
Semi-major
6,891.6 km
B*
2.5223e-4
RAAN
103.9022°
Arg perigee
131.7100°
Mean anomaly
228.4623°
Rev number
844

§ Raw data

NUSAT-54 (BRANCA MARQU*)1 68442U 26067AC  26145.16453663  .00004986  00000+0  25223-3 0  99902 68442  97.4526 103.9022 0005713 131.7100 228.4623 15.17471974  8444

JSON: /api/v1/satellites/68442 · /tle

For live sub-satellite position, see the globe view (requires WebGL).

§ Visibility from observer

Set your observer location to see the next 7 days of passes ≥ 10°. The values pass through the URL so the page stays shareable.

No JS? Fill the form by hand. The geolocation button needs JavaScript.